This is the latest recevied weather packets stored in our database for station/object DN9CHO-13. If no packets are shown the sender has not sent any weather packets the latest 10 day(s).
| Time | Temp. | Humidity | Pressure | Rain* | Wind** | Luminosity | Snow |
|---|---|---|---|---|---|---|---|
| 1787827222 | 26.11° C | 65% | 1012.5 hPa | 0 mm | - | 16 W/m² | - |
| 1787826618 | 26.11° C | 66% | 1012.7 hPa | 0 mm | - | 16 W/m² | - |
| 1787826034 | 25° C | 69% | 1012.5 hPa | 0 mm | - | 17 W/m² | - |
| 1787825431 | 24.44° C | 71% | 1012.7 hPa | 0 mm | - | 25 W/m² | - |
| 1787824827 | 24.44° C | 71% | 1012.8 hPa | 0 mm | - | 26 W/m² | - |
| 1787824223 | 24.44° C | 72% | 1012.7 hPa | 0 mm | - | 17 W/m² | - |
| 1787823619 | 24.44° C | 72% | 1012.9 hPa | 0 mm | - | 21 W/m² | - |
| 1787823016 | 23.89° C | 73% | 1012.8 hPa | 0 mm | - | 17 W/m² | - |
| 1787822432 | 23.33° C | 74% | 1012.9 hPa | 0 mm | - | 15 W/m² | - |
| 1787821829 | 22.78° C | 76% | 1013.1 hPa | 0 mm | - | 11 W/m² | - |
| 1787821225 | 22.22° C | 78% | 1013.3 hPa | 0 mm | - | 19 W/m² | - |
| 1787820621 | 21.67° C | 79% | 1013.3 hPa | 0 mm | - | 16 W/m² | - |
| 1787820017 | 21.11° C | 80% | 1013.4 hPa | 0 mm | - | 12 W/m² | - |
| 1787819434 | 21.11° C | 80% | 1013.5 hPa | 0 mm | - | 8 W/m² | - |
| 1787818830 | 20.56° C | 81% | 1013.7 hPa | 0 mm | - | 14 W/m² | - |
| 1787818226 | 20.56° C | 81% | 1013.7 hPa | 0 mm | - | 15 W/m² | - |
| 1787817623 | 20.56° C | 82% | 1014 hPa | 0 mm | - | 13 W/m² | - |
| 1787817019 | 20° C | 82% | 1014.1 hPa | 0 mm | - | 12 W/m² | - |
| 1787816415 | 20° C | 82% | 1014.1 hPa | 0 mm | - | 12 W/m² | - |
| 1787815832 | 20° C | 82% | 1014.3 hPa | 0 mm | - | 14 W/m² | - |
| 1787815228 | 19.44° C | 83% | 1014.5 hPa | 0 mm | - | 11 W/m² | - |
| 1787814624 | 19.44° C | 83% | 1014.3 hPa | 0 mm | - | 11 W/m² | - |
| 1787814021 | 19.44° C | 84% | 1014.3 hPa | 0 mm | - | 11 W/m² | - |
| 1787813417 | 18.89° C | 84% | 1014.5 hPa | 0 mm | - | 10 W/m² | - |
| 1787812834 | 18.89° C | 85% | 1014.4 hPa | 0 mm | - | 8 W/m² | - |
* Rain latest hour (hover to see other rain measurements)
** Current wind speed in m/s (hover to see current wind gust speed)